Location: Unspecified
(35.6961°N, 0.0000°E)
Time: 11:18:09
(UTC+00:00)

Vanguard 3 - Pass Details

Date: 04 June 2019
Orbit: 508 x 3263 km, 33.3° (Epoch: 16 June)

Event Time Altitude Azimuth Distance (km) Brightness Sun altitude
Rises 00:30:30 0° 266° (W) 4,119 - -31.4°
Reaches altitude 10° 00:33:55 10° 249° (WSW) 3,551 - -31.3°
Maximum altitude 00:40:15 20° 207° (SSW) 3,523 - -31.1°
Drops below altitude 10° 00:48:59 10° 168° (SSE) 5,095 - -30.7°
Sets 00:55:31 0° 154° (SSE) 6,596 - -30.4°
